Tracking 19827 objects as of 21-Aug-2019
HD Live streaming from Space Station
objects crossing your sky now

FENGYUN 1C DEB

Track FENGYUN 1C DEB now!
10-day predictions


NORAD ID: 32115
Int'l Code: 1999-025CRH
Perigee: 811.2 km
Apogee: 851.8 km
Inclination: 99.0 °
Period: 101.4 minutes
Semi major axis: 7202 km
RCS: 0.0124 m2 (small)
Launch date: May 10, 1999
Source: People's Republic of China (PRC)
Launch site: Taiyaun Space Center, China (TSC)

Note: This is SATELLITE DEBRIS
aabbcc
Your satellite tracking list
Your tracking list is empty




NASA's NSSDC Master Catalog

Two Line Element Set (TLE):
1 32115U 99025CRH 19202.35002302  .00000701  00000-0  34775-3 0  9993
2 32115  98.9595 246.9790 0028149 187.1858 172.8918 14.20292553618608
Source of the keplerian elements: AFSPC